Location: Bruderhein
(53.8035°N, 112.9265°W)
Time: 10:05:26
(UTC+00:00)

BEESAT - Pass Details

Date: 08 April 2023
Orbit: 696 x 706 km, 98.5° (Epoch: 29 May)

Event Time Altitude Azimuth Distance (km) Brightness Sun altitude
Rises 06:54:44 0° 6° (N) 3,113 ? -28.5°
Reaches altitude 10° 06:57:56 10° 343° (NNW) 2,188 ? -28.6°
Maximum altitude 07:00:29 15° 311° (NW) 1,890 ? -28.7°
Drops below altitude 10° 07:03:01 10° 278° (W) 2,178 ? -28.7°
Enters shadow 07:04:32 - 265° (W) 2,562 ? -28.7°
